Seward, AK

12:16 PM AKST on December 03, 2016 (GMT -0900)
Seward

Weather History for PAWD - November, 2014

Change the Weather History Date:

Sunday, November 30, 2014

  Actual Average Record
Temperature  
Mean Temperature 29 °F -  
Max Temperature 33 °F 31 °F 46 °F (1976)
Min Temperature 25 °F 22 °F -2 °F (1990)
Degree Days  
Heating Degree Days 36    
Moisture  
Dew Point 20 °F    
Average Humidity 72    
Maximum Humidity 81    
Minimum Humidity 59    
Precipitation  
Precipitation 0.00 in - - ()
Sea Level Pressure  
Sea Level Pressure 30.02 in    
Wind  
Wind Speed 14 mph (North)    
Max Wind Speed 21 mph    
Max Gust Speed 34 mph    
Visibility 10 miles    
Events      
Averages and records for this station are not official NWS values.
T = Trace of Precipitation, MM = Missing Value Source: NWS Daily Summary

Daily Weather History Graph

Daily Weather History Graph

Search for Another Location

Airport or City:

Trip Planner

Search our weather history database for the weather conditions in past years. The results will help you decide how hot, cold, wet, or windy it might be!

Date:

Astronomy

Nov. 30, 2014 Rise Set
Actual Time 9:32 AM AKST 4:00 PM AKST
Civil Twilight 8:37 AM AKST 4:54 PM AKST
Nautical Twilight 7:42 AM AKST 5:49 PM AKST
Astronomical Twilight 6:52 AM AKST 6:40 PM AKST
Moon 2:05 PM AKST (11/30) 1:35 AM AKST (11/30)
Length of Visible Light 8h 16m
Length of Day
6h 28m
Waxing Gibbous, 66% of the Moon is Illuminated
Nov 30
Waxing Gibbous
Dec 6
Full
Dec 14
Last Quarter
Dec 21
New
Dec 28
First Quarter

Hourly Weather History & Observations

Time (AKST) Temp. Windchill Dew Point Humidity Pressure Visibility Wind Dir Wind Speed Gust Speed Precip Events Conditions
12:53 AM 30.9 °F 20.2 °F 21.9 °F 69% 30.06 in 10.0 mi NNE 15.0 mph 20.7 mph N/A   Clear
1:53 AM 30.9 °F 21.7 °F 21.9 °F 69% 30.06 in 10.0 mi North 11.5 mph - N/A   Partly Cloudy
2:53 AM 32.0 °F 23.0 °F 21.0 °F 64% 30.07 in 10.0 mi North 11.5 mph - N/A   Clear
3:53 AM 33.1 °F 24.9 °F 19.9 °F 59% 30.06 in 10.0 mi North 10.4 mph 20.7 mph N/A   Clear
4:53 AM 32.0 °F 23.0 °F 21.0 °F 64% 30.07 in 10.0 mi North 11.5 mph 21.9 mph N/A   Clear
5:53 AM 32.0 °F 22.1 °F 21.0 °F 64% 30.06 in 10.0 mi NNE 13.8 mph 20.7 mph N/A   Clear
6:53 AM 30.9 °F 19.8 °F 21.0 °F 67% 30.06 in 10.0 mi NNE 16.1 mph 21.9 mph N/A   Clear
7:53 AM 28.9 °F 16.9 °F 21.0 °F 72% 30.06 in 10.0 mi North 17.3 mph 29.9 mph N/A   Clear
8:53 AM 28.0 °F 15.3 °F 21.0 °F 75% 30.05 in 10.0 mi North 18.4 mph 34.5 mph N/A   Clear
9:53 AM 28.0 °F 14.6 °F 21.0 °F 75% 30.04 in 10.0 mi North 20.7 mph 29.9 mph N/A   Clear
10:53 AM 28.0 °F 15.7 °F 21.0 °F 75% 30.05 in 10.0 mi NNE 17.3 mph 28.8 mph N/A   Clear
11:53 AM 28.9 °F 16.9 °F 19.9 °F 69% 30.04 in 10.0 mi NNE 17.3 mph 32.2 mph N/A   Clear
12:53 PM 28.9 °F 16.9 °F 19.9 °F 69% 30.04 in 10.0 mi North 17.3 mph 34.5 mph N/A   Clear
1:53 PM 28.0 °F 15.7 °F 19.9 °F 72% 30.03 in 10.0 mi North 17.3 mph 27.6 mph N/A   Clear
2:53 PM 28.0 °F 15.3 °F 19.9 °F 72% 30.02 in 10.0 mi North 18.4 mph 26.5 mph N/A   Clear
3:53 PM 26.1 °F 12.7 °F 19.9 °F 78% 30.00 in 10.0 mi North 18.4 mph 24.2 mph N/A   Clear
4:53 PM 25.0 °F 12.2 °F 19.9 °F 81% 29.99 in 10.0 mi NNE 16.1 mph 25.3 mph N/A   Clear
5:53 PM 25.0 °F 13.1 °F 19.0 °F 78% 29.99 in 10.0 mi North 13.8 mph - N/A   Clear
6:53 PM 25.0 °F 12.2 °F 19.0 °F 78% 29.97 in 10.0 mi North 16.1 mph 21.9 mph N/A   Clear
7:53 PM 25.0 °F 13.6 °F 19.0 °F 78% 29.97 in 10.0 mi North 12.7 mph 20.7 mph N/A   Overcast
8:53 PM 25.0 °F 13.6 °F 19.0 °F 78% 29.96 in 10.0 mi North 12.7 mph - N/A   Mostly Cloudy
9:53 PM 26.1 °F 15.6 °F 19.0 °F 75% 29.96 in 10.0 mi North 11.5 mph - N/A   Overcast
10:53 PM 26.1 °F 16.8 °F 19.0 °F 75% 29.95 in 10.0 mi North 9.2 mph - N/A   Overcast
11:53 PM 26.1 °F 16.8 °F 19.9 °F 78% 29.95 in 10.0 mi NNW 9.2 mph - N/A   Overcast